User: anonymous
Location: Unspecified
(0.0000°N, 0.0000°E)
Time: 20:01:51
(UTC+02:00)
Language:

Iridium 39 - Orbit

View from above orbital plane
View from above orbital plane
View from above satellite
View from above satellite

Ground track
Ground track

The orbit data is extracted from the following two-line orbital elements,

1 25042U 97069D   14233.45166191  .00000185  00000-0  59046-4 0  9341
2 25042 086.3933 093.0219 0001894 100.8702 259.2707 14.34220985878576
Epoch (UTC): 21 August 2014 10:50:23
Eccentricity: 0.0001894
inclination: 86.3933°
perigee height: 776 km
apogee height: 779 km
right ascension of ascending node: 93.0219°
argument of perigee: 100.8702°
revolutions per day: 14.34220985
mean anomaly at epoch: 259.2707°
orbit number at epoch: 87857

The dashed part of the orbit path shows where the satellite is in the earth's shadow,  

DLR